Home > Weather > Görlitz > Past weeks

Flag for Germany Past Weather in Görlitz, Saxony, Germany — Yesterday and Last 2 Weeks

Now
67 °F

Scattered clouds.


Feels Like: 67 °F
Forecast: 63 / 76 °F
Wind: 2 mph from Southwest

Location: Liberec

Current Time: Jul 28, 2016 at 10:23:07 PM

Latest Report: Jul 28, 2016 at 8:00 PM


Visibility: 19 mi

Pressure: 29.96 "Hg

Humidity: 71%

Dew Point: 57 °F

Location of GörlitzLocation

Past Weather in Görlitz — Graph

°F

Görlitz Temperature Yesterday

Maximum temperature yesterday: 80 °F (at 11:00 AM)
Minimum temperature yesterday: 59 °F (at 5:00 AM)
Average temperature yesterday: 67 °F

High & Low Weather Summary for the Past Weeks

 TemperatureHumidityPressure
High81 °F (Jul 23, 4:00 PM)98% (Jul 14, 4:00 AM)30.29 "Hg (Jul 14, 4:00 AM)
Low47 °F (Jul 17, 2:00 AM)38% (Jul 23, 1:00 PM)29.77 "Hg (Jul 14, 10:00 AM)
Average64 °F76%30.05 "Hg
* Reported Jul 13 8:00 PM — Jul 28 8:00 PM, Görlitz, Weather by CustomWeather, © 2016

Note: Actual official high and low records may vary slightly from our data, if they occured in-between our weather recording intervals... More about our weather records

Advertising

Görlitz Weather History for the Previous 24 Hours

Scroll right to see more
 ConditionsComfort  
Time TempWeatherWind HumidityBarometerVisibility
8:00 PM
Thu, Jul 28
67 °FScattered clouds.2 mph71%29.96 "Hg19 mi
5:00 PM71 °FPartly sunny.1 mph63%29.96 "Hg19 mi
3:00 PM72 °FScattered clouds.2 mph56%29.98 "Hg19 mi
2:00 PM74 °FScattered clouds.3 mph57%29.99 "Hg17 mi
1:00 PM72 °FPartly sunny.2 mph51%30.00 "Hg15 mi
12:00 PM71 °FPartly sunny.2 mph57%30.01 "Hg10 mi
11:00 AM70 °FPartly sunny.5 mph67%30.01 "Hg8 mi
10:00 AM68 °FPartly sunny.3 mph71%30.02 "Hg7 mi
9:00 AM65 °FFog.2 mph87%30.03 "Hg3 mi
8:00 AM62 °FFog.1 mph96%30.02 "Hg3 mi
7:00 AM60 °FCool.No wind98%30.02 "Hg1 mi
6:00 AM58 °FCool.1 mph98%30.02 "Hg2 mi
5:00 AM58 °FCool.No wind98%30.02 "Hg1 mi
4:00 AM57 °FDuststorm.No wind98%30.01 "Hg1 mi
3:00 AM59 °FRain showers. Overcast.1 mph98%30.01 "Hg0 mi
2:00 AM59 °FLight rain. Overcast.No wind98%30.01 "Hg0 mi
1:00 AM59 °FDuststorm.1 mph97%30.00 "Hg0 mi
12:00 AM61 °FFog.1 mph97%29.99 "Hg2 mi
11:00 PM
Wed, Jul 27
61 °FCool.2 mph98%30.00 "Hg4 mi
10:00 PM61 °FFog.1 mph96%29.98 "Hg1 mi
Weather by CustomWeather, © 2016

See weather overviewHow to use our weather pages